Location: Newark
(54.4000°N, 32.4500°E)
Time: 23:32:00
(UTC+00:00)

Envisat - Pass Details

Date: 21 January 2020
Orbit: 764 x 766 km, 98.1° (Epoch: 19 February)

Event Time Altitude Azimuth Distance (km) Brightness Sun altitude
Rises 16:38:35 0° 201° (SSW) 3,224 6.6 -21.4°
Reaches altitude 10° 16:41:17 10° 215° (SW) 2,303 6.0 -21.8°
Maximum altitude 16:45:25 25° 269° (W) 1,525 5.3 -22.4°
Drops below altitude 10° 16:49:35 10° 324° (NW) 2,317 5.9 -23.0°
Sets 16:52:18 0° 338° (NNW) 3,248 6.5 -23.4°
